Weather History for KBYY - December, 2012

Change the Weather History Date:

Sunday, December 30, 2012

  Actual Average Record
Temperature  
Mean Temperature 47 °F -  
Max Temperature 61 °F - - ()
Min Temperature 33 °F - - ()
Degree Days  
Heating Degree Days 18    
Moisture  
Dew Point 39 °F    
Average Humidity 74    
Maximum Humidity 90    
Minimum Humidity 53    
Precipitation  
Precipitation 0.00 in - - ()
Sea Level Pressure  
Sea Level Pressure 30.36 in    
Wind  
Wind Speed 7 mph (ENE)    
Max Wind Speed 15 mph    
Max Gust Speed 22 mph    
Visibility 10 miles    
Events      
T = Trace of Precipitation, MM = Missing Value Source: NWS Daily Summary

Daily Weather History Graph

Daily Weather History Graph

Search for Another Location

Airport or City:

Trip Planner

Search our weather history database for the weather conditions in past years. The results will help you decide how hot, cold, wet, or windy it might be!

Date:

Astronomy

Dec. 30, 2012 Rise Set
Actual Time 7:16 AM CST 5:36 PM CST
Civil Twilight 6:50 AM CST 6:02 PM CST
Nautical Twilight 6:21 AM CST 6:31 PM CST
Astronomical Twilight 5:52 AM CST 7:00 PM CST
Moon 7:55 PM CST (12/30) 8:36 AM CST (12/30)
Length of Visible Light 11h 11m
Length of Day
10h 19m
Waning Gibbous, 95% of the Moon is Illuminated
Dec 30
Waning Gibbous
Jan 4
Last Quarter
Jan 11
New
Jan 18
First Quarter
Jan 26
Full

Hourly Weather History & Observations

Time (CST) Temp. Windchill Dew Point Humidity Pressure Visibility Wind Dir Wind Speed Gust Speed Precip Events Conditions
12:15 AM 38.1 °F 35.7 °F 33.4 °F 83% 30.45 in 10.0 mi NNW 3.5 mph - N/A   Clear
12:35 AM 37.8 °F - 32.2 °F 80% 30.44 in 10.0 mi Calm Calm - N/A   Clear
12:55 AM 36.0 °F - 31.6 °F 84% 30.43 in 10.0 mi Calm Calm - N/A   Clear
1:15 AM 35.1 °F - 32.0 °F 89% 30.43 in 10.0 mi Calm Calm - N/A   Clear
1:35 AM 34.5 °F - 31.5 °F 89% 30.43 in 10.0 mi Calm Calm - N/A   Clear
1:55 AM 34.7 °F 31.8 °F 31.6 °F 89% 30.43 in 10.0 mi NNW 3.5 mph - N/A   Clear
2:15 AM 34.3 °F 29.2 °F 31.8 °F 90% 30.43 in 10.0 mi North 5.8 mph - N/A   Clear
2:35 AM 34.2 °F - 31.3 °F 89% 30.44 in 10.0 mi Calm Calm - N/A   Clear
2:55 AM 34.5 °F 30.4 °F 30.6 °F 85% 30.43 in 10.0 mi NNE 4.6 mph - N/A   Clear
3:15 AM 34.9 °F 29.9 °F 30.6 °F 84% 30.44 in 10.0 mi NNE 5.8 mph - N/A   Clear
3:35 AM 35.6 °F 31.7 °F 30.4 °F 81% 30.44 in 10.0 mi NNE 4.6 mph - N/A   Clear
3:55 AM 35.2 °F 30.3 °F 30.2 °F 82% 30.43 in 10.0 mi NNE 5.8 mph - N/A   Clear
4:15 AM 35.4 °F 31.5 °F 30.0 °F 81% 30.43 in 10.0 mi NNE 4.6 mph - N/A   Clear
4:35 AM 34.5 °F 30.4 °F 29.8 °F 83% 30.43 in 10.0 mi NNE 4.6 mph - N/A   Clear
4:55 AM 34.0 °F 31.0 °F 29.5 °F 84% 30.44 in 10.0 mi NNE 3.5 mph - N/A   Clear
5:15 AM 33.4 °F 28.1 °F 29.1 °F 84% 30.43 in 10.0 mi NNE 5.8 mph - N/A   Clear
5:35 AM 33.8 °F 28.6 °F 29.5 °F 84% 30.43 in 10.0 mi NNE 5.8 mph - N/A   Clear
5:55 AM 35.6 °F 29.9 °F 30.2 °F 81% 30.43 in 10.0 mi NE 6.9 mph - N/A   Clear
6:15 AM 36.0 °F 31.1 °F 29.8 °F 78% 30.44 in 10.0 mi NNE 5.8 mph - N/A   Clear
6:35 AM 35.1 °F 30.1 °F 30.0 °F 82% 30.44 in 10.0 mi NE 5.8 mph - N/A   Clear
6:55 AM 35.2 °F 29.5 °F 30.2 °F 82% 30.44 in 10.0 mi NNE 6.9 mph - N/A   Clear
7:15 AM 35.6 °F 29.2 °F 30.4 °F 81% 30.45 in 10.0 mi NNE 8.1 mph - N/A   Clear
7:35 AM 35.6 °F 30.7 °F 30.2 °F 81% 30.45 in 10.0 mi NNE 5.8 mph - N/A   Clear
7:55 AM 36.7 °F 32.0 °F 30.6 °F 78% 30.45 in 10.0 mi NNE 5.8 mph - N/A   Clear
8:15 AM 39.2 °F 33.6 °F 31.6 °F 74% 30.45 in 10.0 mi NNE 8.1 mph - N/A   Clear
8:35 AM 41.4 °F 35.2 °F 31.8 °F 69% 30.44 in 10.0 mi NE 10.4 mph - N/A   Clear
8:55 AM 43.2 °F 37.0 °F 32.0 °F 65% 30.44 in 10.0 mi NE 11.5 mph 16.1 mph N/A   Clear
9:15 AM 43.9 °F 39.3 °F 32.0 °F 63% 30.45 in 10.0 mi NE 8.1 mph - N/A   Clear
9:35 AM 45.1 °F 38.8 °F 33.3 °F 63% 30.44 in 10.0 mi NE 13.8 mph - N/A   Clear
9:55 AM 46.4 °F 41.1 °F 34.3 °F 63% 30.44 in 10.0 mi NE 11.5 mph - N/A   Clear
10:15 AM 47.8 °F - 35.4 °F 62% 30.45 in 10.0 mi ENE 11.5 mph - N/A   Clear
10:35 AM 49.1 °F - 36.7 °F 62% 30.46 in 10.0 mi ENE 8.1 mph - N/A   Clear
10:55 AM 51.4 °F - 37.8 °F 60% 30.45 in 10.0 mi ENE 10.4 mph - N/A   Clear
11:15 AM 53.8 °F - 39.0 °F 57% 30.45 in 10.0 mi ENE 11.5 mph 17.3 mph N/A   Clear
11:35 AM 55.6 °F - 39.9 °F 56% 30.44 in 10.0 mi East 12.7 mph - N/A   Clear
11:55 AM 55.4 °F - 40.6 °F 58% 30.42 in 10.0 mi East 12.7 mph 17.3 mph N/A   Clear
12:15 PM 56.5 °F - 41.7 °F 58% 30.39 in 10.0 mi East 13.8 mph 20.7 mph N/A   Clear
12:35 PM 57.2 °F - 42.3 °F 57% 30.39 in 10.0 mi East 11.5 mph 16.1 mph N/A   Clear
12:55 PM 59.4 °F - 43.0 °F 55% 30.38 in 10.0 mi ESE 11.5 mph 17.3 mph N/A   Clear
1:15 PM 60.3 °F - 43.3 °F 54% 30.36 in 10.0 mi ESE 9.2 mph 19.6 mph N/A   Clear
1:35 PM 59.0 °F - 42.8 °F 55% 30.35 in 10.0 mi East 12.7 mph 17.3 mph N/A   Clear
1:55 PM 60.3 °F - 44.1 °F 55% 30.34 in 10.0 mi East 11.5 mph 18.4 mph N/A   Clear
2:15 PM 61.2 °F - 44.4 °F 54% 30.33 in 10.0 mi East 11.5 mph 21.9 mph N/A   Clear
2:35 PM 61.3 °F - 44.4 °F 54% 30.32 in 10.0 mi East 11.5 mph 16.1 mph N/A   Scattered Clouds
2:55 PM 61.7 °F - 44.6 °F 53% 30.33 in 10.0 mi East 12.7 mph 16.1 mph N/A   Scattered Clouds
3:15 PM 60.4 °F - 44.6 °F 56% 30.32 in 10.0 mi East 9.2 mph - N/A   Clear
3:35 PM 60.3 °F - 45.0 °F 57% 30.32 in 10.0 mi East 13.8 mph - N/A   Scattered Clouds
3:55 PM 59.4 °F - 45.3 °F 60% 30.31 in 10.0 mi East 10.4 mph - N/A   Clear
4:15 PM 58.3 °F - 45.3 °F 62% 30.31 in 10.0 mi East 13.8 mph - N/A   Clear
4:35 PM 56.5 °F - 45.5 °F 67% 30.30 in 10.0 mi East 12.7 mph 17.3 mph N/A   Clear
4:55 PM 56.3 °F - 45.7 °F 68% 30.29 in 10.0 mi East 11.5 mph - N/A   Clear
5:15 PM 55.0 °F - 45.7 °F 71% 30.29 in 10.0 mi East 12.7 mph - N/A   Clear
5:35 PM 53.8 °F - 45.7 °F 74% 30.28 in 10.0 mi ENE 15.0 mph 18.4 mph N/A   Scattered Clouds
5:55 PM 52.9 °F - 45.7 °F 77% 30.27 in 10.0 mi ENE 12.7 mph 18.4 mph N/A   Scattered Clouds
6:15 PM 52.7 °F - 45.9 °F 78% 30.27 in 10.0 mi ENE 10.4 mph 16.1 mph N/A   Mostly Cloudy
6:35 PM 52.5 °F - 45.9 °F 78% 30.27 in 10.0 mi ENE 12.7 mph 16.1 mph N/A   Overcast
6:55 PM 52.3 °F - 45.9 °F 79% 30.27 in 10.0 mi ENE 10.4 mph - N/A   Overcast
7:15 PM 52.2 °F - 45.9 °F 79% 30.27 in 10.0 mi ENE 10.4 mph - N/A   Overcast
7:35 PM 51.8 °F - 45.9 °F 80% 30.27 in 10.0 mi ENE 9.2 mph - N/A   Overcast
7:55 PM 51.3 °F - 45.7 °F 81% 30.27 in 10.0 mi ENE 8.1 mph - N/A   Mostly Cloudy
8:15 PM 50.9 °F - 45.9 °F 83% 30.27 in 10.0 mi ENE 6.9 mph - N/A   Mostly Cloudy
8:35 PM 50.7 °F - 46.0 °F 84% 30.27 in 10.0 mi ENE 8.1 mph - N/A   Scattered Clouds
8:55 PM 50.5 °F - 46.4 °F 86% 30.27 in 10.0 mi ENE 8.1 mph - N/A   Clear
9:15 PM 50.9 °F - 46.8 °F 86% 30.24 in 10.0 mi East 10.4 mph - N/A   Clear
9:35 PM 51.4 °F - 47.7 °F 87% 30.24 in 10.0 mi East 9.2 mph - N/A   Scattered Clouds
9:55 PM 52.5 °F - 48.4 °F 86% 30.22 in 10.0 mi East 13.8 mph 18.4 mph N/A   Overcast
10:15 PM 53.6 °F - 49.3 °F 85% 30.23 in 10.0 mi East 10.4 mph - N/A   Overcast
10:35 PM 54.7 °F - 50.4 °F 85% 30.23 in 10.0 mi East 11.5 mph 17.3 mph N/A   Overcast
10:55 PM 55.0 °F - 50.9 °F 86% 30.22 in 10.0 mi East 11.5 mph - N/A   Overcast
11:15 PM 55.8 °F - 51.8 °F 87% 30.21 in 10.0 mi East 11.5 mph - N/A   Overcast
11:35 PM 56.7 °F - 52.7 °F 87% 30.21 in 10.0 mi East 13.8 mph - N/A   Overcast
11:55 PM 57.2 °F - 53.1 °F 86% 30.21 in 10.0 mi East 11.5 mph - N/A   Overcast